ZL4ND Weather Reports


time (UTC)temp
F
wind
direction
speed
knots
gust
knots
rain 1hr
in
rain 24hr
in
rain mn
in
humidity
%
barometer
mb
20260510015516 63 250 2.6 12.2 0.00 0.00 0.00 69 998.7
20260510014517 63 252 1.7 5.2 0.00 0.00 0.00 68 998.3
20260510013517 63 305 2.6 8.7 0.00 0.00 0.00 67 998.5
20260510012516 63 332 3.5 13.0 0.00 0.00 0.00 67 998.3
20260510011516 63 83 2.6 6.1 0.00 0.00 0.00 68 998.3
20260510010517 63 239 3.5 16.5 0.00 0.00 0.00 67 998.0
20260510005517 63 227 6.1 17.4 0.00 0.01 0.00 65 998.2
20260510004516 64 140 3.5 8.7 0.00 0.01 0.00 66 997.8
20260510002517 64 230 3.5 9.6 0.00 0.01 0.00 66 997.8
20260510001517 64 235 6.1 15.6 0.00 0.01 0.00 66 997.7
20260510000516 64 191 4.3 14.8 0.00 0.01 0.00 66 997.2
20260509235537 64 248 5.2 13.9 0.00 0.04 0.00 66 996.8
20260509234517 64 252 4.3 11.3 0.00 0.04 0.00 67 996.5
20260509233516 64 253 6.1 16.5 0.00 0.04 0.00 68 995.7
20260509232516 64 253 6.1 13.0 0.00 0.04 0.00 67 995.9
20260509231517 64 249 6.1 13.0 0.00 0.04 0.00 68 995.9
20260509230537 63 251 6.1 13.0 0.00 0.04 0.00 69 996.0
20260509225516 63 261 6.1 13.9 0.00 0.07 0.00 70 995.8
20260509224517 63 258 6.1 16.5 0.00 0.07 0.00 71 996.0
20260509223517 62 259 6.1 13.9 0.00 0.07 0.00 72 996.0
20260509222536 62 261 6.1 13.0 0.00 0.07 0.00 72 996.2
20260509221516 62 256 6.1 15.6 0.00 0.07 0.00 72 996.2
20260509220517 62 260 6.1 15.6 0.00 0.07 0.00 72 996.2
20260509215516 61 249 6.1 20.0 0.00 0.14 0.00 71 996.5
20260509214536 61 253 6.1 17.4 0.00 0.14 0.00 72 996.3
20260509213517 61 251 5.2 11.3 0.00 0.14 0.00 73 996.5
20260509212517 60 250 5.2 13.9 0.00 0.14 0.00 73 996.7
20260509211516 60 252 5.2 18.2 0.00 0.14 0.00 72 996.7
20260509205517 60 256 6.1 16.5 0.00 0.18 0.00 72 996.4
20260509204517 60 254 5.2 12.2 0.00 0.18 0.00 73 996.7
20260509203516 59 252 6.1 13.9 0.00 0.18 0.00 74 996.7
20260509202517 59 263 5.2 11.3 0.00 0.18 0.00 76 996.7
20260509201517 58 256 4.3 12.2 0.00 0.18 0.00 76 996.6
20260509200537 58 258 4.3 12.2 0.00 0.18 0.00 77 996.7
20260509195516 58 257 5.2 16.5 0.00 0.20 0.00 76 996.7
20260509194517 57 257 5.2 15.6 0.00 0.20 0.00 77 996.4
20260509193517 57 255 5.2 13.0 0.00 0.20 0.00 77 996.2
20260509192516 57 252 5.2 13.9 0.00 0.20 0.00 77 996.3
20260509191517 57 256 6.1 16.5 0.00 0.20 0.00 77 996.2
20260509190517 57 253 6.1 14.8 0.00 0.20 0.00 77 995.8
20260509185516 57 249 5.2 15.6 0.00 0.40 0.00 77 995.8
20260509184516 57 252 4.3 11.3 0.00 0.40 0.00 77 996.1
20260509183517 57 251 4.3 11.3 0.00 0.40 0.00 77 996.4
20260509182517 57 247 6.1 15.6 0.00 0.40 0.00 77 996.1
20260509181516 57 244 5.2 14.8 0.00 0.40 0.00 78 996.1
20260509180518 57 256 6.1 15.6 0.00 0.40 0.00 76 995.7
20260509175517 57 256 6.1 18.2 0.00 0.45 0.00 77 995.6
20260509174517 57 257 6.1 14.8 0.00 0.45 0.00 77 995.9
20260509173516 57 250 4.3 10.4 0.00 0.45 0.00 77 996.1
20260509172517 57 245 5.2 13.9 0.00 0.45 0.00 77 996.2
20260509171517 57 252 5.2 13.0 0.00 0.45 0.00 76 995.7
20260509170536 57 259 4.3 13.0 0.00 0.45 0.00 75 995.7
20260509165517 57 258 4.3 10.4 0.00 0.49 0.00 74 995.7
20260509164537 57 261 5.2 14.8 0.00 0.49 0.00 74 995.6
20260509163516 57 259 5.2 11.3 0.00 0.49 0.00 74 995.8
20260509162516 57 256 6.1 13.9 0.00 0.49 0.00 75 995.6
20260509161517 57 262 5.2 13.0 0.00 0.49 0.00 76 995.8
20260509160536 57 254 5.2 13.0 0.00 0.49 0.00 76 995.7
20260509155516 57 251 5.2 9.6 0.00 0.49 0.00 77 995.8
20260509154537 57 263 6.1 14.8 0.00 0.49 0.00 77 995.8
20260509153517 57 264 5.2 12.2 0.00 0.49 0.00 77 996.1
20260509152517 57 249 4.3 8.7 0.00 0.49 0.00 76 996.7
20260509151516 57 259 4.3 8.7 0.00 0.49 0.00 76 997.0
20260509150517 57 245 4.3 13.0 0.00 0.49 0.00 76 997.2
20260509145517 57 240 4.3 16.5 0.00 0.50 0.00 76 997.2
20260509144536 57 265 3.5 11.3 0.00 0.50 0.00 76 997.3
20260509143516 57 214 3.5 11.3 0.00 0.50 0.00 75 997.3
20260509142517 57 173 3.5 7.0 0.00 0.50 0.00 75 997.2
20260509141517 57 224 3.5 8.7 0.00 0.50 0.00 75 997.0
20260509140517 57 242 5.2 12.2 0.00 0.50 0.00 76 996.6
20260509135516 57 234 3.5 9.6 0.00 0.50 0.00 77 996.6
20260509134537 57 259 4.3 13.0 0.00 0.50 0.00 78 996.5
20260509133517 57 271 3.5 13.0 0.00 0.50 0.00 78 996.6
20260509132516 57 239 4.3 15.6 0.00 0.50 0.00 78 996.2
20260509131518 57 254 4.3 12.2 0.00 0.50 0.00 78 996.2
20260509130517 57 248 4.3 13.0 0.00 0.50 0.00 77 996.3
20260509125637 57 240 4.3 12.2 0.00 0.50 0.00 76 996.0
20260509124517 57 288 4.3 19.1 0.00 0.50 0.00 77 995.8
20260509123517 57 262 4.3 17.4 0.00 0.50 0.00 77 996.4
20260509122517 57 261 4.3 10.4 0.00 0.50 0.00 77 996.9
20260509121516 57 244 4.3 19.1 0.00 0.50 0.00 77 997.3
20260509120516 57 197 4.3 16.5 0.00 0.50 0.00 76 997.4
20260509115517 57 243 3.5 9.6 0.00 0.52 0.50 76 997.5
20260509114517 57 198 1.7 7.0 0.00 0.52 0.50 77 997.5
20260509113516 57 249 3.5 11.3 0.00 0.52 0.50 79 997.3
20260509112516 57 292 3.5 9.6 0.00 0.52 0.50 77 997.2
20260509111517 57 279 3.5 8.7 0.00 0.52 0.50 78 997.2
20260509110537 57 34 4.3 15.6 0.00 0.52 0.50 77 997.4
20260509105516 57 329 5.2 14.8 0.00 0.60 0.50 76 997.6
20260509104516 57 10 5.2 13.0 0.00 0.60 0.50 76 997.2
20260509103518 57 50 6.1 13.9 0.00 0.60 0.50 76 997.2
20260509102518 57 260 6.1 18.2 0.00 0.60 0.50 75 997.4
20260509101516 57 146 5.2 10.4 0.00 0.60 0.50 75 997.0
20260509100516 58 248 5.2 18.2 0.00 0.60 0.50 76 996.7
20260509095518 58 244 5.2 16.5 0.00 0.80 0.50 77 996.8
20260509094517 58 245 6.1 17.4 0.00 0.80 0.50 76 996.4
20260509093517 58 248 6.1 15.6 0.00 0.80 0.50 77 996.5
20260509092516 58 264 4.3 15.6 0.00 0.80 0.50 77 996.6
20260509091516 58 259 4.3 12.2 0.00 0.80 0.50 77 996.8
20260509090517 58 259 4.3 14.8 0.00 0.80 0.50 79 997.2
20260509085517 58 284 3.5 11.3 0.00 0.85 0.50 79 997.5
20260509084537 58 260 3.5 13.0 0.00 0.85 0.50 78 997.5
20260509082518 58 298 3.5 13.9 0.00 0.85 0.50 79 997.7
20260509081517 58 280 3.5 10.4 0.00 0.85 0.50 79 997.4
20260509080537 58 284 4.3 13.9 0.00 0.85 0.50 79 997.4
20260509075516 58 261 5.2 18.2 0.00 0.94 0.50 78 997.3
20260509074518 58 246 5.2 13.9 0.00 0.94 0.50 78 997.3
20260509073517 58 265 6.1 16.5 0.00 0.94 0.50 78 996.7
20260509072517 58 260 5.2 15.6 0.00 0.94 0.50 79 996.3
20260509071536 58 258 6.1 11.3 0.00 0.94 0.50 79 996.9
20260509070517 58 263 4.3 11.3 0.00 0.94 0.50 80 996.7
20260509065517 58 275 4.3 13.0 0.00 0.94 0.50 81 996.7
20260509064517 58 274 4.3 20.0 0.00 0.94 0.50 81 996.6
20260509063537 58 259 3.5 11.3 0.00 0.94 0.50 81 997.0
20260509062516 58 267 4.3 11.3 0.00 0.94 0.50 81 997.0
20260509061517 58 249 4.3 16.5 0.00 0.94 0.50 81 997.4
20260509060517 58 254 3.5 11.3 0.00 0.94 0.50 81 997.7
20260509055516 58 252 4.3 10.4 0.00 0.94 0.50 81 998.1
20260509054516 59 250 2.6 10.4 0.00 0.94 0.50 82 998.3
20260509053518 59 256 2.6 9.6 0.00 0.94 0.50 81 998.4
20260509052517 59 45 1.7 5.2 0.00 0.94 0.50 80 998.3
20260509051536 59 195 2.6 7.8 0.00 0.94 0.50 80 998.4
20260509050516 60 272 1.7 9.6 0.00 0.94 0.50 80 998.2
20260509045518 60 249 2.6 11.3 0.00 0.94 0.50 79 998.3
20260509044516 60 218 4.3 9.6 0.00 0.94 0.50 78 998.2
20260509043517 60 274 2.6 6.1 0.00 0.94 0.50 79 998.2
20260509042517 61 254 3.5 22.6 0.00 0.94 0.50 79 997.9
20260509041517 61 253 3.5 17.4 0.00 0.94 0.50 78 997.5
20260509040516 61 308 4.3 12.2 0.00 0.94 0.50 78 997.2
20260509035518 61 283 4.3 11.3 0.00 0.94 0.50 79 997.0
20260509034517 61 286 4.3 13.0 0.00 0.94 0.50 80 997.0
20260509033516 61 266 4.3 9.6 0.00 0.94 0.50 80 997.1
20260509032536 61 273 3.5 7.8 0.00 0.94 0.50 79 996.9
20260509031517 61 249 4.3 11.3 0.00 0.94 0.50 80 996.7
20260509030537 61 264 3.5 8.7 0.00 0.94 0.50 80 996.9
20260509025517 61 305 3.5 14.8 0.00 0.94 0.50 80 996.8
20260509024518 61 35 3.5 8.7 0.00 0.94 0.50 80 996.7
20260509023517 62 246 4.3 12.2 0.00 0.94 0.50 79 996.8
20260509022517 61 241 3.5 9.6 0.00 0.94 0.50 80 997.0
20260509021516 62 268 2.6 8.7 0.00 0.94 0.50 80 997.3
20260509020519 61 265 3.5 12.2 0.00 0.94 0.50 81 997.5